Weather History for Gage, OK

Change the Weather History Date:

Wednesday, January 18, 2012

  Actual Average Record
Temperature  
Mean Temperature 35 °F -  
Max Temperature 55 °F 44 °F 72 °F (1976)
Min Temperature 15 °F 22 °F -11 °F (1984)
Degree Days  
Heating Degree Days 30    
Moisture  
Dew Point 16 °F    
Average Humidity 48    
Maximum Humidity 70    
Minimum Humidity 24    
Precipitation  
Precipitation 0.00 in - - ()
Sea Level Pressure  
Sea Level Pressure 30.08 in    
Wind  
Wind Speed 13 mph (South)    
Max Wind Speed 25 mph    
Max Gust Speed 34 mph    
Visibility 10 miles    
Events      
Averages and records for this station are not official NWS values.
T = Trace of Precipitation, MM = Missing Value Source: NWS Daily Summary

Daily Weather History Graph

Daily Weather History Graph

Search for Another Location

Airport:

Trip Planner

Search our weather history database for the weather conditions in past years. The results will help you decide how hot, cold, wet, or windy it might be!

Date:

Astronomy

Jan. 18, 2012 Rise Set
Actual Time 7:48 AM CST 5:50 PM CST
Civil Twilight 7:20 AM CST 6:18 PM CST
Nautical Twilight 6:49 AM CST 6:49 PM CST
Astronomical Twilight 6:18 AM CST 7:20 PM CST
Moon 3:19 AM CST (1/18) 1:31 PM CST (1/18)
Length of Visible Light 10h 57m
Length of Day
10h 01m
Waning Crescent, 24% of the Moon is Illuminated
Jan 18
Waning Crescent
Jan 23
New
Jan 30
First Quarter
Feb 7
Full
Feb 14
Last Quarter

Hourly Weather History & Observations

Time (CST) Temp. Windchill Dew Point Humidity Pressure Visibility Wind Dir Wind Speed Gust Speed Precip Events Conditions
12:53 AM 15.1 °F 9.4 °F 6.1 °F 68% 30.34 in 10.0 mi East 3.5 mph - N/A   Clear
1:53 AM 15.1 °F 4.2 °F 7.0 °F 70% 30.32 in 10.0 mi South 8.1 mph - N/A   Clear
2:53 AM 23.0 °F 10.1 °F 10.0 °F 58% 30.28 in 10.0 mi South 15.0 mph - N/A   Clear
3:53 AM 21.9 °F 7.8 °F 9.0 °F 58% 30.25 in 10.0 mi South 17.3 mph - N/A   Clear
4:53 AM 19.9 °F 6.7 °F 9.0 °F 62% 30.25 in 10.0 mi South 13.8 mph - N/A   Clear
5:53 AM 19.9 °F 6.7 °F 10.0 °F 65% 30.23 in 10.0 mi South 13.8 mph - N/A   Clear
6:53 AM 21.9 °F 7.3 °F 10.9 °F 63% 30.20 in 10.0 mi SSW 18.4 mph - N/A   Clear
7:53 AM 21.9 °F 9.2 °F 10.9 °F 63% 30.22 in 10.0 mi SSW 13.8 mph - N/A   Clear
8:53 AM 25.0 °F 13.6 °F 12.9 °F 60% 30.23 in 10.0 mi SSW 12.7 mph - N/A   Clear
9:53 AM 32.0 °F 18.6 °F 14.0 °F 48% 30.19 in 10.0 mi SSW 25.3 mph 34.5 mph N/A   Clear
10:53 AM 37.9 °F 27.6 °F 16.0 °F 41% 30.19 in 10.0 mi SSW 20.7 mph - N/A   Clear
11:53 AM 44.1 °F 36.5 °F 18.0 °F 35% 30.15 in 10.0 mi SW 17.3 mph - N/A   Clear
12:53 PM 46.0 °F 38.5 °F 19.0 °F 34% 30.08 in 10.0 mi SW 19.6 mph 23.0 mph N/A   Clear
1:53 PM 51.1 °F - 19.9 °F 29% 30.03 in 10.0 mi SSW 11.5 mph - N/A   Clear
2:53 PM 54.0 °F - 19.0 °F 25% 29.98 in 10.0 mi SW 10.4 mph - N/A   Clear
3:53 PM 55.9 °F - 19.0 °F 24% 29.95 in 10.0 mi SSW 11.5 mph - N/A   Clear
4:53 PM 55.0 °F - 21.0 °F 27% 29.95 in 10.0 mi South 11.5 mph - N/A   Clear
5:53 PM 44.1 °F 38.6 °F 19.9 °F 38% 29.96 in 10.0 mi SSE 10.4 mph - N/A   Clear
6:53 PM 42.1 °F 35.2 °F 19.9 °F 41% 29.95 in 10.0 mi SSE 12.7 mph - N/A   Clear
7:53 PM 41.0 °F 32.2 °F 21.0 °F 45% 29.92 in 10.0 mi South 18.4 mph - N/A   Clear
8:53 PM 39.9 °F 30.8 °F 21.9 °F 49% 29.89 in 10.0 mi SSE 18.4 mph - N/A   Clear
9:53 PM 39.0 °F 29.6 °F 23.0 °F 53% 29.87 in 10.0 mi South 18.4 mph 21.9 mph N/A   Clear
10:53 PM 39.9 °F 29.2 °F 23.0 °F 51% 29.82 in 10.0 mi South 25.3 mph 31.1 mph N/A   Clear
11:53 PM 39.0 °F 28.0 °F 24.1 °F 55% 29.78 in 10.0 mi South 25.3 mph - N/A   Clear